DW7854 Weather Reports


time (UTC)temp
F
wind
direction
speed
knots
gust
knots
rain 1hr
in
rain 24hr
in
rain mn
in
humidity
%
barometer
mb
20260504043003 59 183 0.0 1.7 0.00 0.00 0.00 79 1014.7
20260504042930 60 184 0.9 1.7 0.00 0.00 0.00 79 1014.4
20260504042030 60 184 0.9 1.7 0.00 0.00 0.00 79 1014.5
20260504041505 60 183 0.9 1.7 0.00 0.00 0.00 78 1014.8
20260504041130 61 184 0.0 0.9 0.00 0.00 0.00 77 1014.6
20260504040230 61 0 0.0 0.0 0.00 0.00 0.00 76 1014.6
20260504040103 61 183 0.0 0.0 0.00 0.00 0.00 76 1014.9
20260504035330 62 0 0.0 0.0 0.00 0.00 0.00 75 1014.6
20260504034503 61 183 0.0 0.0 0.00 0.00 0.00 75 1014.8
20260504034430 62 0 0.0 0.0 0.00 0.00 0.00 75 1014.6
20260504033530 62 0 0.0 0.0 0.00 0.00 0.00 75 1014.5
20260504033003 62 183 0.0 0.0 0.00 0.00 0.00 75 1014.8
20260504032629 62 0 0.0 0.0 0.00 0.00 0.00 75 1014.5
20260504031604 62 183 0.0 0.0 0.00 0.00 0.00 74 1014.7
20260504030830 63 184 0.0 1.7 0.00 0.00 0.00 73 1014.5
20260504030013 63 183 0.0 0.9 0.00 0.00 0.00 73 1014.8
20260504025930 64 184 0.0 1.7 0.00 0.00 0.00 73 1014.5
20260504025030 64 184 0.9 1.7 0.00 0.00 0.00 72 1014.6
20260504024603 64 183 0.0 1.7 0.00 0.00 0.00 71 1014.8
20260504024129 65 184 0.0 1.7 0.00 0.00 0.00 70 1014.4
20260504023230 66 184 0.9 1.7 0.00 0.00 0.00 69 1014.3
20260504023103 65 183 0.9 1.7 0.00 0.00 0.00 69 1014.7
20260504022330 67 184 0.0 1.7 0.00 0.00 0.00 66 1014.4
20260504021602 67 183 0.0 1.7 0.00 0.00 0.00 66 1014.6
20260504020529 68 184 0.0 0.9 0.00 0.00 0.00 64 1014.2
20260504020004 68 183 0.0 0.9 0.00 0.00 0.00 63 1014.4
20260504015629 69 184 0.0 0.9 0.00 0.00 0.00 63 1014.0
20260504014730 70 0 0.0 0.0 0.00 0.00 0.00 61 1013.9
20260504014505 70 183 0.0 0.9 0.00 0.00 0.00 60 1014.2
20260504013829 71 184 0.0 0.9 0.00 0.00 0.00 59 1013.9
20260504013014 72 183 0.0 0.0 0.00 0.00 0.00 57 1014.2
20260504012029 73 184 0.0 0.9 0.00 0.00 0.00 56 1013.9
20260504011502 73 183 0.0 0.9 0.00 0.00 0.00 54 1014.1
20260504011130 74 184 0.0 1.7 0.00 0.00 0.00 53 1013.8
20260504010229 74 184 0.0 0.9 0.00 0.00 0.00 52 1013.7
20260504005329 75 184 0.0 1.7 0.00 0.00 0.00 52 1013.7
20260504004505 75 183 0.0 3.5 0.00 0.00 0.00 51 1013.9
20260504004430 75 186 0.9 3.5 0.00 0.00 0.00 51 1013.6
20260504003005 76 175 0.9 4.3 0.00 0.00 0.00 50 1014.0
20260504002630 76 184 0.9 2.6 0.00 0.00 0.00 50 1013.7
20260504001729 77 165 0.9 2.6 0.00 0.00 0.00 49 1013.7
20260504001503 76 182 0.9 4.3 0.00 0.00 0.00 49 1014.0
20260504000829 77 176 1.7 6.1 0.00 0.00 0.00 48 1013.7
20260504000002 77 159 1.7 6.1 0.00 0.00 0.00 48 1014.0
20260503235929 78 179 1.7 6.1 0.00 0.00 0.00 48 1013.7
20260503235029 78 174 2.6 7.0 0.00 0.00 0.00 46 1013.9
20260503234503 78 173 1.7 6.1 0.00 0.00 0.00 46 1014.2
20260503234129 79 175 3.5 7.0 0.00 0.00 0.00 46 1013.8
20260503233229 79 178 3.5 8.7 0.00 0.00 0.00 44 1013.9
20260503233006 79 213 4.3 8.7 0.00 0.00 0.00 44 1014.2
20260503232329 80 176 4.3 8.7 0.00 0.00 0.00 43 1013.8
20260503231505 80 167 3.5 9.6 0.00 0.00 0.00 44 1014.2
20260503231429 80 177 4.3 9.6 0.00 0.00 0.00 43 1013.9
20260503230529 81 181 3.5 8.7 0.00 0.00 0.00 44 1013.9
20260503230002 81 155 3.5 7.8 0.00 0.00 0.00 43 1014.2
20260503225629 81 183 3.5 7.8 0.00 0.00 0.00 43 1013.9
20260503224729 82 189 3.5 7.0 0.00 0.00 0.00 40 1014.0
20260503224504 82 150 3.5 7.0 0.00 0.00 0.00 41 1014.3
20260503223829 82 226 1.7 5.2 0.00 0.00 0.00 41 1014.1
20260503223006 81 120 0.0 5.2 0.00 0.00 0.00 43 1014.3
20260503222929 82 183 2.6 5.2 0.00 0.00 0.00 41 1014.1
20260503222029 81 190 3.5 10.4 0.00 0.00 0.00 42 1014.2
20260503221510 81 167 1.7 7.8 0.00 0.00 0.00 41 1014.5
20260503221129 82 184 3.5 7.8 0.00 0.00 0.00 41 1014.2
20260503220229 83 171 3.5 10.4 0.00 0.00 0.00 39 1014.2
20260503220104 83 121 4.3 10.4 0.00 0.00 0.00 38 1014.5
20260503215329 83 192 3.5 7.0 0.00 0.00 0.00 38 1014.2
20260503214508 82 215 2.6 8.7 0.00 0.00 0.00 45 1014.6
20260503214429 83 182 3.5 8.7 0.00 0.00 0.00 42 1014.3
20260503213529 83 167 4.3 10.4 0.00 0.00 0.00 43 1014.5
20260503213007 82 168 5.2 10.4 0.00 0.00 0.00 45 1014.8
20260503212629 82 179 4.3 7.8 0.00 0.00 0.00 42 1014.6
20260503211729 83 183 3.5 10.4 0.00 0.00 0.00 44 1014.7
20260503211607 83 172 2.6 11.3 0.00 0.00 0.00 41 1015.1
20260503210829 83 181 2.6 6.1 0.00 0.00 0.00 40 1014.9
20260503210106 83 198 1.7 8.7 0.00 0.00 0.00 42 1015.3
20260503205929 83 185 3.5 11.3 0.00 0.00 0.00 43 1015.0
20260503205029 83 177 3.5 11.3 0.00 0.00 0.00 40 1015.2
20260503204504 82 148 1.7 7.8 0.00 0.00 0.00 42 1015.7
20260503203229 83 191 3.5 7.8 0.00 0.00 0.00 43 1015.7
20260503203008 82 210 4.3 7.0 0.00 0.00 0.00 41 1016.1
20260503202329 83 192 3.5 10.4 0.00 0.00 0.00 41 1016.0
20260503201605 82 157 0.9 10.4 0.00 0.00 0.00 43 1016.4
20260503201429 83 184 4.3 7.8 0.00 0.00 0.00 44 1016.1
20260503200529 83 230 2.6 7.8 0.00 0.00 0.00 41 1016.2
20260503200107 83 51 1.7 7.8 0.00 0.00 0.00 43 1016.7
20260503195629 83 171 3.5 7.0 0.00 0.00 0.00 42 1016.4
20260503194729 82 224 2.6 9.6 0.00 0.00 0.00 45 1016.6
20260503194507 82 254 2.6 9.6 0.00 0.00 0.00 42 1016.9
20260503193829 82 200 3.5 9.6 0.00 0.00 0.00 42 1016.7
20260503193006 82 282 2.6 12.2 0.00 0.00 0.00 43 1017.1
20260503192029 82 175 3.5 13.0 0.00 0.00 0.00 44 1017.0
20260503191604 81 175 4.3 13.0 0.00 0.00 0.00 44 1017.3
20260503191129 82 192 2.6 7.8 0.00 0.00 0.00 45 1017.1
20260503190229 81 195 3.5 7.0 0.00 0.00 0.00 45 1017.3
20260503190111 81 360 3.5 7.0 0.00 0.00 0.00 44 1017.6
20260503185329 80 309 3.5 8.7 0.00 0.00 0.00 46 1017.5
20260503184506 80 15 2.6 7.8 0.00 0.00 0.00 45 1017.9
20260503183529 81 183 3.5 7.8 0.00 0.00 0.00 42 1017.7
20260503183006 80 204 2.6 7.0 0.00 0.00 0.00 46 1018.2
20260503182629 80 173 3.5 7.8 0.00 0.00 0.00 44 1017.9
20260503181729 80 201 3.5 6.1 0.00 0.00 0.00 47 1018.0
20260503181510 79 158 1.7 11.3 0.00 0.00 0.00 43 1018.4
20260503180829 80 183 3.5 11.3 0.00 0.00 0.00 44 1018.2
20260503180105 79 244 3.5 10.4 0.00 0.00 0.00 44 1018.7
20260503175929 79 171 4.3 11.3 0.00 0.00 0.00 44 1018.4
20260503175029 79 176 3.5 7.8 0.00 0.00 0.00 46 1018.6
20260503174506 79 192 3.5 7.0 0.00 0.00 0.00 46 1019.0
20260503174129 79 173 2.6 7.0 0.00 0.00 0.00 47 1018.7
20260503173229 78 185 4.3 10.4 0.00 0.00 0.00 44 1018.8
20260503173106 78 245 2.6 10.4 0.00 0.00 0.00 45 1019.3
20260503172329 78 170 4.3 10.4 0.00 0.00 0.00 46 1018.9
20260503171605 77 161 3.5 10.4 0.00 0.00 0.00 47 1019.4
20260503170529 77 178 5.2 11.3 0.00 0.00 0.00 46 1019.1
20260503131129 53 0 0.0 0.0 0.00 0.00 0.00 92 1020.5
20260503130229 52 0 0.0 0.0 0.00 0.00 0.00 94 1020.4
20260503130106 51 248 0.0 0.0 0.00 0.00 0.00 94 1020.8
20260503120105 46 197 0.0 0.0 0.00 0.00 0.00 93 1020.3
20260503110528 46 0 0.0 0.0 0.00 0.00 0.00 90 1019.4
20260503110107 45 5 0.0 0.0 0.00 0.00 0.00 90 1019.8
20260503100228 46 0 0.0 0.0 0.00 0.00 0.00 90 1019.1
20260503100111 46 5 0.0 0.0 0.00 0.00 0.00 90 1019.5
20260503081517 47 5 0.0 0.0 0.00 0.00 0.00 89 1019.3
20260503081428 47 0 0.0 0.0 0.00 0.00 0.00 89 1018.9
20260503080528 47 0 0.0 0.0 0.00 0.00 0.00 89 1018.9
20260503080104 47 5 0.0 0.0 0.00 0.00 0.00 89 1019.3
20260503072028 48 0 0.0 0.0 0.00 0.00 0.00 90 1019.0
20260503071509 48 5 0.0 0.0 0.00 0.00 0.00 90 1019.4
20260503071128 48 0 0.0 0.0 0.00 0.00 0.00 90 1019.1
20260503070228 49 0 0.0 0.0 0.00 0.00 0.00 90 1019.1
20260503060119 50 5 0.0 0.0 0.00 0.00 0.00 88 1019.4
20260503055028 50 0 0.0 0.0 0.00 0.00 0.00 87 1019.0
20260503054624 50 5 0.0 0.0 0.00 0.00 0.00 87 1019.4
20260503054128 51 0 0.0 0.0 0.00 0.00 0.00 86 1019.0
20260503053228 51 0 0.0 0.0 0.00 0.00 0.00 85 1018.9
20260503053010 51 5 0.0 0.0 0.00 0.00 0.00 85 1019.3
20260503052328 51 0 0.0 0.0 0.00 0.00 0.00 85 1018.8
20260503051606 51 5 0.0 0.0 0.00 0.00 0.00 85 1019.2
20260503050528 52 0 0.0 0.0 0.00 0.00 0.00 85 1018.8
20260503050005 52 5 0.0 0.0 0.00 0.00 0.00 85 1019.0
20260503045628 52 0 0.0 0.0 0.00 0.00 0.00 84 1018.6
20260503044728 52 0 0.0 0.0 0.00 0.00 0.00 85 1018.7
20260503044603 52 5 0.0 0.0 0.00 0.00 0.00 85 1019.0